Skip Page Navigation
NASA JPL Caltech
NASA Logo - Jet Propulsion Laboratory + View the NASA Portal
+ Center for Near-Earth Object Studies
JPL Home Earth Solar System Stars & Galaxies Technology
JPL Solar System Dynamics
BODIES ORBITS EPHEMERIDES TOOLS PHYSICAL DATA DISCOVERY FAQ SITE MAP
JPL Small-Body Database Browser
Search: [ help ]  
295854 (2008 VX67)
Classification: Main-belt Asteroid          SPK-ID: 2295854
Ephemeris | Orbit Diagram | Orbital Elements | Mission Design | Physical Parameters | Discovery Circumstances | Close-Approach Data ]

[ show orbit diagram ]
Orbital Elements at Epoch 2459000.5 (2020-May-31.0) TDB
Reference: JPL 12 (heliocentric ecliptic J2000)
 Element Value Uncertainty (1-sigma)   Units 
e .1782587940915534 8.6593e-08  
a 2.69123610497863 2.681e-08 au
q 2.21149960228949 2.2794e-07 au
i 11.71537614963606 7.8283e-06 deg
node 252.6033557193022 3.7719e-05 deg
peri 327.1493561627578 4.3057e-05 deg
M 86.42243309732888 1.7152e-05 deg
tp 2458613.375982635692
(2019-May-09.87598264)
7.8488e-05 TDB
period 1612.598040305096
4.42
2.4097e-05
6.597e-08
d
yr
n .2232422407830098 3.3359e-09 deg/d
Q 3.17097260766777 3.1589e-08 au
  Orbit Determination Parameters
   # obs. used (total)      188  
   data-arc span      6723 days (18.41 yr)  
   first obs. used      2001-02-01  
   last obs. used      2019-06-30  
   planetary ephem.      DE431  
   SB-pert. ephem.      SB431-N16  
   condition code      0  
   norm. resid. RMS      .6595  
   source      ORB  
   producer      Otto Matic  
   solution date      2020-Feb-25 16:43:06  

Additional Information
 Earth MOID = 1.21185 au 
 Jupiter MOID = 1.87703 au 
 T_jup = 3.319 
[ show covariance matrix ]

Ephemeris | Orbit Diagram | Orbital Elements | Mission Design | Physical Parameters | Discovery Circumstances | Close-Approach Data ]

Physical Parameter Table
Parameter Symbol Value Units Sigma Reference Notes
absolute magnitude H 16.0   n/a MPO476299  
diameter diameter 3.773 km 0.106 urn:nasa:pds:neowise_diameters_albedos::2.0[mainbelt] (http://adsabs.harvard.edu/abs/2011ApJ...741...68M)  
geometric albedo albedo 0.054   0.011 urn:nasa:pds:neowise_diameters_albedos::2.0[mainbelt] (http://adsabs.harvard.edu/abs/2011ApJ...741...68M)  

295854 (2008 VX67)          Discovered 2008-Nov-06 by Mt. Lemmon Survey at Mount Lemmon
Reference: 20110912/Numbers.arcLast Updated: 2011-09-14

[ show close-approach data ]
Ephemeris | Orbit Diagram | Orbital Elements | Mission Design | Physical Parameters | Discovery Circumstances | Close-Approach Data ]
ABOUT SSD CREDITS/AWARDS PRIVACY/COPYRIGHT GLOSSARY LINKS
FirstGov 2020-Jul-12 07:30 UT
(server date/time)  
NASA Home Page
Site Manager:   Ryan S. Park
Webmaster  Alan B. Chamberlin